Hourly Weather Horoshavka

Today, 12 May, Wednesday

Time Temperature Precipitation Wind Pressure Humidity
00:00 +7°C° 0 mm 2 mps 750 mmHg 84%
01:00 +6°C° 0 mm 2 mps 750 mmHg 86%
02:00 +6°C° 0 mm 2 mps 750 mmHg 88%
03:00 +6°C° 0 mm 2 mps 750 mmHg 89%
04:00 +6°C° 0 mm 2 mps 750 mmHg 87%
05:00 +6°C° 0 mm 2 mps 750 mmHg 86%
06:00 +6°C° 0 mm 2 mps 750 mmHg 85%
07:00 +8°C° 0 mm 3 mps 750 mmHg 79%
08:00 +10°C° 0 mm 4 mps 750 mmHg 73%
09:00 +12°C° 0 mm 4 mps 749 mmHg 67%
10:00 +11°C° 0.4 mm 4 mps 749 mmHg 73%
11:00 +11°C° 0.4 mm 4 mps 748 mmHg 79%
12:00 +10°C° 0.4 mm 3 mps 748 mmHg 86%
13:00 +10°C° 0.9 mm 3 mps 747 mmHg 87%
14:00 +9°C° 0.9 mm 2 mps 747 mmHg 88%
15:00 +10°C° 0.9 mm 1 mps 746 mmHg 89%
16:00 +9°C° 0.1 mm 2 mps 746 mmHg 86%
17:00 +10°C° 0.1 mm 2 mps 746 mmHg 83%
18:00 +12°C° 0.1 mm 2 mps 746 mmHg 80%
19:00 +10°C° 0 mm 3 mps 746 mmHg 84%
20:00 +9°C° 0 mm 3 mps 746 mmHg 88%
21:00 +8°C° 0 mm 3 mps 746 mmHg 92%
22:00 +7°C° 0 mm 3 mps 745 mmHg 93%
23:00 +6°C° 0 mm 4 mps 745 mmHg 93%

Tomorrow, 13 May, Thursday

Time Temperature Precipitation Wind Pressure Humidity
00:00 +6°C° 0 mm 4 mps 745 mmHg 93%
01:00 +7°C° 0 mm 4 mps 745 mmHg 92%
02:00 +7°C° 0 mm 5 mps 745 mmHg 91%
03:00 +7°C° 0 mm 5 mps 745 mmHg 90%
04:00 +8°C° 0 mm 5 mps 745 mmHg 90%
05:00 +8°C° 0 mm 5 mps 745 mmHg 90%
06:00 +8°C° 0 mm 5 mps 745 mmHg 90%
07:00 +9°C° 0 mm 5 mps 744 mmHg 86%
08:00 +12°C° 0 mm 5 mps 744 mmHg 81%
09:00 +13°C° 0 mm 5 mps 744 mmHg 77%
10:00 +14°C° 0.1 mm 5 mps 744 mmHg 76%
11:00 +14°C° 0.1 mm 5 mps 744 mmHg 75%
12:00 +15°C° 0.1 mm 4 mps 744 mmHg 73%
13:00 +13°C° 1.4 mm 4 mps 744 mmHg 79%
14:00 +12°C° 1.4 mm 3 mps 744 mmHg 85%
15:00 +10°C° 1.4 mm 3 mps 744 mmHg 91%
16:00 +12°C° 0.4 mm 3 mps 744 mmHg 88%
17:00 +14°C° 0.4 mm 2 mps 743 mmHg 86%
18:00 +15°C° 0.4 mm 2 mps 743 mmHg 83%
19:00 +14°C° 0.2 mm 2 mps 743 mmHg 87%
20:00 +13°C° 0.2 mm 2 mps 743 mmHg 91%
21:00 +12°C° 0.2 mm 2 mps 744 mmHg 95%
22:00 +12°C° 0 mm 2 mps 744 mmHg 95%
23:00 +12°C° 0 mm 2 mps 744 mmHg 96%

Day after tomorrow, 14 May, Friday

Time Temperature Precipitation Wind Pressure Humidity
00:00 +10°C° 0 mm 2 mps 744 mmHg 96%
01:00 +10°C° 0 mm 2 mps 744 mmHg 95%
02:00 +10°C° 0 mm 2 mps 744 mmHg 95%
03:00 +10°C° 0 mm 2 mps 744 mmHg 94%
04:00 +12°C° 0.1 mm 2 mps 744 mmHg 94%
05:00 +12°C° 0.1 mm 2 mps 744 mmHg 94%
06:00 +13°C° 0.1 mm 2 mps 744 mmHg 93%
07:00 +13°C° 0.3 mm 3 mps 744 mmHg 89%
08:00 +15°C° 0.3 mm 4 mps 744 mmHg 85%
09:00 +18°C° 0.3 mm 4 mps 743 mmHg 81%
10:00 +19°C° 0 mm 5 mps 743 mmHg 77%
11:00 +20°C° 0 mm 5 mps 743 mmHg 73%
12:00 +22°C° 0 mm 6 mps 743 mmHg 68%
13:00 +23°C° 0 mm 6 mps 743 mmHg 66%
14:00 +24°C° 0 mm 6 mps 742 mmHg 64%
15:00 +24°C° 0 mm 6 mps 742 mmHg 61%
16:00 +24°C° 0.2 mm 6 mps 742 mmHg 65%
17:00 +23°C° 0.2 mm 6 mps 741 mmHg 68%
18:00 +22°C° 0.2 mm 6 mps 741 mmHg 72%
19:00 +21°C° 0.1 mm 5 mps 741 mmHg 77%
20:00 +19°C° 0.1 mm 4 mps 741 mmHg 81%
21:00 +18°C° 0.1 mm 3 mps 741 mmHg 86%
22:00 +18°C° 0 mm 3 mps 741 mmHg 86%
23:00 +18°C° 0 mm 3 mps 741 mmHg 86%

15 May, Saturday

Time Temperature Precipitation Wind Pressure Humidity
00:00 +17°C° 0 mm 3 mps 740 mmHg 86%
01:00 +17°C° 0.9 mm 3 mps 741 mmHg 88%
02:00 +16°C° 0.9 mm 3 mps 741 mmHg 91%
03:00 +16°C° 0.9 mm 3 mps 741 mmHg 93%
04:00 +16°C° 0.7 mm 3 mps 740 mmHg 93%
05:00 +15°C° 0.7 mm 4 mps 740 mmHg 92%
06:00 +14°C° 0.7 mm 4 mps 740 mmHg 92%
07:00 +15°C° 0.9 mm 4 mps 740 mmHg 92%
08:00 +16°C° 0.9 mm 5 mps 740 mmHg 92%
09:00 +17°C° 0.9 mm 5 mps 740 mmHg 92%
10:00 +19°C° 0.1 mm 5 mps 740 mmHg 88%
11:00 +20°C° 0.1 mm 5 mps 740 mmHg 84%
12:00 +21°C° 0.1 mm 4 mps 740 mmHg 80%
13:00 +22°C° 0.3 mm 5 mps 740 mmHg 75%
14:00 +22°C° 0.3 mm 5 mps 740 mmHg 71%
15:00 +23°C° 0.3 mm 6 mps 740 mmHg 66%
16:00 +23°C° 0.2 mm 5 mps 740 mmHg 69%
17:00 +22°C° 0.2 mm 5 mps 740 mmHg 71%
18:00 +21°C° 0.2 mm 4 mps 740 mmHg 74%
19:00 +20°C° 0.1 mm 4 mps 740 mmHg 79%
20:00 +18°C° 0.1 mm 3 mps 740 mmHg 83%
21:00 +17°C° 0.1 mm 3 mps 741 mmHg 88%
22:00 +16°C° 0 mm 2 mps 741 mmHg 89%
23:00 +15°C° 0 mm 2 mps 741 mmHg 90%

16 May, Sunday

Time Temperature Precipitation Wind Pressure Humidity
00:00 +15°C° 0 mm 2 mps 741 mmHg 91%
01:00 +14°C° 0 mm 2 mps 741 mmHg 91%
02:00 +14°C° 0 mm 2 mps 741 mmHg 91%
03:00 +14°C° 0 mm 1 mps 742 mmHg 92%
04:00 +14°C° 0 mm 1 mps 742 mmHg 91%
05:00 +14°C° 0 mm 1 mps 742 mmHg 91%
06:00 +14°C° 0 mm 1 mps 742 mmHg 91%
07:00 +16°C° 0 mm 1 mps 742 mmHg 85%
08:00 +18°C° 0 mm 1 mps 742 mmHg 80%
09:00 +19°C° 0 mm 2 mps 742 mmHg 75%
10:00 +20°C° 0 mm 2 mps 742 mmHg 70%
11:00 +21°C° 0 mm 2 mps 742 mmHg 65%
12:00 +23°C° 0 mm 2 mps 742 mmHg 60%
13:00 +23°C° 0 mm 2 mps 742 mmHg 58%
14:00 +24°C° 0 mm 2 mps 742 mmHg 56%
15:00 +24°C° 0 mm 2 mps 742 mmHg 54%
16:00 +24°C° 0 mm 1 mps 742 mmHg 56%
17:00 +24°C° 0 mm 1 mps 742 mmHg 58%
18:00 +24°C° 0 mm 1 mps 742 mmHg 61%
19:00 +22°C° 0 mm 1 mps 742 mmHg 64%
20:00 +21°C° 0 mm 1 mps 742 mmHg 67%
21:00 +19°C° 0 mm 1 mps 742 mmHg 71%
22:00 +17°C° 0 mm 2 mps 742 mmHg 73%
23:00 +17°C° 0 mm 2 mps 742 mmHg 75%

17 May, Monday

Time Temperature Precipitation Wind Pressure Humidity
00:00 +16°C° 0 mm 3 mps 742 mmHg 78%
01:00 +16°C° 0.2 mm 3 mps 742 mmHg 81%
02:00 +14°C° 0.2 mm 3 mps 742 mmHg 85%
03:00 +14°C° 0.2 mm 3 mps 742 mmHg 88%
04:00 +14°C° 0 mm 3 mps 742 mmHg 89%
05:00 +15°C° 0 mm 4 mps 742 mmHg 89%
06:00 +15°C° 0 mm 4 mps 742 mmHg 89%
07:00 +18°C° 0 mm 4 mps 742 mmHg 85%
08:00 +19°C° 0 mm 5 mps 742 mmHg 80%
09:00 +21°C° 0 mm 5 mps 742 mmHg 76%
10:00 +23°C° 0 mm 5 mps 742 mmHg 70%
11:00 +25°C° 0 mm 5 mps 742 mmHg 65%
12:00 +26°C° 0 mm 5 mps 742 mmHg 60%
13:00 +27°C° 0 mm 5 mps 741 mmHg 57%
14:00 +28°C° 0 mm 5 mps 741 mmHg 54%
15:00 +28°C° 0 mm 5 mps 741 mmHg 51%
16:00 +27°C° 0 mm 4 mps 741 mmHg 54%
17:00 +26°C° 0 mm 4 mps 741 mmHg 58%
18:00 +25°C° 0 mm 4 mps 741 mmHg 62%
19:00 +22°C° 0 mm 4 mps 741 mmHg 67%
20:00 +21°C° 0 mm 4 mps 741 mmHg 72%
21:00 +19°C° 0 mm 3 mps 741 mmHg 77%
22:00 +19°C° 0 mm 3 mps 741 mmHg 78%
23:00 +18°C° 0 mm 4 mps 741 mmHg 79%
Show more

We Need Your Consent

Meteoprog and our Service Providers may store and access personal data such as cookies, device identifiers or other similar technologies on your device and process such data to personalise content and ads, as well as provide social media features and to analyse the traffic.

  • Store and/or access information on your device

    Cookies, device identifiers or other information can be stored or accessed on your device for the purposes indicated above.

  • Personalised ads and content, ad and content measurement, audience insights, and products development

    Ads and content can be personalised based on a profile. More data can be added to better personalise ads and content. Ad and content performance can be measured. Insights about the audience who saw the ads and content can be derived. Such data can be used to develop or improve user’s experience, systems and software.

By clicking ‘I Agree’ you will allow the use of indicated cookies, device identifiers, web beacons or other similar technologies. Your settings can be changed in the browser on your device.

For certain purposes, legitimate interests may be relied on, rather than consent. You can read more about this in our Privacy and Cookie Policy.